"2009-07-18 00:00:00",1071649,4.961,108.2,7.51,0.514,20.78,109.9697,24.82,25.81,29.29,0,111.2,13.11,25.66,70.2
"2009-07-18 00:00:30",1071650,5.819,106.6,5.954,0.264,20.81,109.9674,24.81,25.81,29.1,0,111.2,13.11,25.65,68.6
"2009-07-18 00:01:00",1071651,6.175,102.6,4.255,0.288,20.8,109.9567,24.78,25.79,29.05,0,111.2,13.11,25.62,64.6
"2009-07-18 00:01:30",1071652,6.309,104.6,7.732,0.487,20.85,109.9446,24.75,25.78,28.94,0,111.2,13.11,25.59,66.6
"2009-07-18 00:02:00",1071653,5.797,103.4,3.509,0.206,20.9,109.9399,24.74,25.77,28.86,0,111.2,13.11,25.58,65.4
"2009-07-18 00:02:30",1071654,5.84,104.3,3.629,0.425,20.86,109.936,24.73,25.77,29,0,111.2,13.11,25.57,66.3
"2009-07-18 00:03:00",1071655,6.148,103.5,2.408,0.254,20.93,109.936,24.73,25.75,28.91,0,111.2,13.11,25.57,65.5
"2009-07-18 00:03:30",1071656,5.959,100.8,1.763,0.198,20.88,109.9354,24.73,25.75,28.82,0,111.2,13.11,25.57,62.8
"2009-07-18 00:04:00",1071657,6.092,95.7,3.707,0.417,20.91,109.9357,24.73,25.73,28.82,0,111.2,13.11,25.57,57.7
"2009-07-18 00:04:30",1071658,5.551,90.7,2.474,0.443,20.87,109.932,24.72,25.73,28.78,0,111.2,13.11,25.56,52.7
"2009-07-18 00:05:00",1071659,5.682,92.3,5.231,0.462,20.88,109.9256,24.7,25.71,28.83,0,111.2,13.11,25.54,54.3
"2009-07-18 00:05:30",1071660,5.564,100.4,5.81,0.304,20.93,109.9189,24.69,25.71,28.9,0,111.2,13.11,25.52,62.4
"2009-07-18 00:06:00",1071661,4.984,105.7,2.896,0.264,20.92,109.9133,24.67,25.71,29,0,111.2,13.11,25.51,67.7
"2009-07-18 00:06:30",1071662,5.034,105.9,2.937,0.187,20.94,109.9116,24.67,25.7,29.05,0,111.2,13.11,25.51,67.9
"2009-07-18 00:07:00",1071663,5.037,101,2.593,0.166,21,109.9113,24.67,25.71,29.05,0,111.2,13.11,25.50,63.0
"2009-07-18 00:07:30",1071664,4.465,102.8,6.951,0.314,20.99,109.9113,24.67,25.69,29.14,0,111.2,13.11,25.50,64.8
"2009-07-18 00:08:00",1071665,4.579,97,4.593,0.482,20.98,109.9141,24.67,25.68,29.02,0,111.2,13.11,25.51,59.0
"2009-07-18 00:08:30",1071666,5.555,90.8,4.133,0.559,21.01,109.9206,24.69,25.67,29.06,0,111.2,13.11,25.53,52.8
"2009-07-18 00:09:00",1071667,5.2,89,5.291,0.328,21.02,109.9293,24.71,25.69,28.97,0,111.2,13.11,25.55,51.0
"2009-07-18 00:09:30",1071668,4.82,96.7,4.475,0.272,20.92,109.936,24.73,25.68,28.83,0,111.2,13.11,25.57,58.7
"2009-07-18 00:10:00",1071669,3.825,94.4,3.829,0.244,20.9,109.9357,24.73,25.68,28.73,0,111.2,13.11,25.57,56.4
"2009-07-18 00:10:30",1071670,4.227,91.3,4.175,0.58,20.87,109.936,24.73,25.7,28.75,0,111.2,13.11,25.57,53.3
"2009-07-18 00:11:00",1071671,4.905,97.3,5.239,0.423,20.93,109.936,24.73,25.71,28.8,0,111.2,13.11,25.57,59.3
"2009-07-18 00:11:30",1071672,4.078,107.2,9.35,0.318,21.02,109.9368,24.73,25.71,28.78,0,111.2,13.12,25.57,69.2
"2009-07-18 00:12:00",1071673,4.48,94.2,5.054,0.391,20.95,109.9433,24.75,25.71,28.51,0,111.2,13.12,25.59,56.2
"2009-07-18 00:12:30",1071674,4.516,85.2,3.525,0.35,21.04,109.9458,24.76,25.71,28.55,0,111.2,13.12,25.59,47.2
"2009-07-18 00:13:00",1071675,4.923,85.4,4.317,0.224,20.94,109.9517,24.77,25.72,28.5,0,111.2,13.12,25.61,47.4
"2009-07-18 00:13:30",1071676,4.747,82.5,8.46,0.213,20.93,109.9632,24.8,25.74,28.34,0,111.2,13.12,25.64,44.5
"2009-07-18 00:14:00",1071677,4.334,76.44,2.17,0.253,21,109.9691,24.82,25.73,28.3,0,111.2,13.12,25.65,38.4
"2009-07-18 00:14:30",1071678,4.618,80.6,4.282,0.143,20.99,109.9697,24.82,25.74,28.06,0,111.2,13.12,25.66,42.6
"2009-07-18 00:15:00",1071679,4.384,85.1,4.272,0.221,20.89,109.9697,24.82,25.76,28.08,0,111.2,13.12,25.66,47.1
"2009-07-18 00:15:30",1071680,4.305,88.1,8.88,0.224,20.95,109.9697,24.82,25.78,28.24,0,111.2,13.12,25.66,50.1
"2009-07-18 00:16:00",1071681,4.835,89.6,5.515,0.232,20.95,109.9764,24.83,25.78,28.42,0,111.2,13.12,25.67,51.6
"2009-07-18 00:16:30",1071682,4.612,84.6,3.123,0.179,20.95,109.9846,24.85,25.79,28.27,0,111.2,13.11,25.69,46.6
"2009-07-18 00:17:00",1071683,4.385,76.78,4.569,0.27,21.09,109.9944,24.88,25.81,28.24,0,111.2,13.11,25.72,38.8
"2009-07-18 00:17:30",1071684,4.984,80.8,3.121,0.551,21.16,110.0003,24.9,25.83,28.27,0,111.2,13.12,25.73,42.8
"2009-07-18 00:18:00",1071685,4.637,83.8,3.787,0.274,20.99,110.0031,24.9,25.83,27.95,0,111.2,13.12,25.74,45.8
"2009-07-18 00:18:30",1071686,4.094,76.09,5.786,0.715,21.04,110.0034,24.9,25.85,27.94,0,111.2,13.12,25.74,38.1
"2009-07-18 00:19:00",1071687,4.222,84.3,6.631,0.291,21.04,110.0034,24.9,25.85,27.99,0,111.2,13.12,25.74,46.3
"2009-07-18 00:19:30",1071688,3.801,69.73,3.1,0.261,21.05,110.0034,24.9,25.87,27.91,0,111.2,13.12,25.74,31.7
"2009-07-18 00:20:00",1071689,3.772,76.06,6.308,0.328,21.07,110.0062,24.91,25.87,27.84,0,111.2,13.12,25.75,38.1
"2009-07-18 00:20:30",1071690,4.809,90.6,2.85,0.329,21.07,110.0104,24.92,25.88,27.9,0,111.2,13.11,25.76,52.6
"2009-07-18 00:21:00",1071691,4.768,76.94,3.996,0.352,21.15,110.0115,24.92,25.89,27.77,0,111.2,13.11,25.76,38.9
"2009-07-18 00:21:30",1071692,5.281,81.9,2.137,0.237,21.23,110.0121,24.93,25.9,27.63,0,111.2,13.11,25.76,43.9
"2009-07-18 00:22:00",1071693,4.779,80.9,1.624,0.182,21.23,110.0115,24.92,25.9,27.6,0,111.2,13.11,25.76,42.9
"2009-07-18 00:22:30",1071694,4.886,77.76,3.001,0.384,21.25,110.0118,24.92,25.91,27.54,0,111.2,13.11,25.76,39.8
"2009-07-18 00:23:00",1071695,5.573,84.1,2.091,0.37,21.34,110.0101,24.92,25.91,27.6,0,111.2,13.11,25.76,46.1
"2009-07-18 00:23:30",1071696,5.55,85.5,2.637,0.273,21.36,110.0064,24.91,25.9,27.8,0,111.2,13.11,25.75,47.5
"2009-07-18 00:24:00",1071697,5.409,80.6,5.37,0.286,21.35,110.0034,24.9,25.92,27.96,0,111.2,13.11,25.74,42.6
"2009-07-18 00:24:30",1071698,5.647,80.6,2.019,0.322,21.35,110.0034,24.9,25.9,27.89,0,111.2,13.11,25.74,42.6
"2009-07-18 00:25:00",1071699,4.519,83,3.038,0.376,21.28,110.0034,24.9,25.91,27.94,0,111.2,13.11,25.74,45.0
"2009-07-18 00:25:30",1071700,4.509,91.7,3.34,0.198,21.25,110.0022,24.9,25.9,28.03,0,111.2,13.11,25.74,53.7
"2009-07-18 00:26:00",1071701,3.996,84.2,8.26,0.331,21.35,109.9994,24.89,25.91,27.87,0,111.2,13.11,25.73,46.2
"2009-07-18 00:26:30",1071702,3.809,97.5,6.099,0.217,21.36,109.9896,24.87,25.9,27.87,0,111.2,13.11,25.71,59.5
"2009-07-18 00:27:00",1071703,3.274,92.6,6.893,0.188,21.4,109.9778,24.84,25.88,27.89,0,111.2,13.12,25.68,54.6
"2009-07-18 00:27:30",1071704,3.621,77.92,4.575,0.289,21.41,109.97,24.82,25.88,27.82,0,111.2,13.12,25.66,39.9
"2009-07-18 00:28:00",1071705,3.34,78.7,2.576,0.159,21.28,109.9697,24.82,25.87,27.84,0,111.2,13.12,25.66,40.7
"2009-07-18 00:28:30",1071706,3.524,78.83,4.112,0.346,21.26,109.9706,24.82,25.87,27.84,0,111.2,13.12,25.66,40.8
"2009-07-18 00:29:00",1071707,3.583,73.68,2.58,0.181,21.31,109.9698,24.82,25.86,27.81,0,111.2,13.12,25.66,35.7
"2009-07-18 00:29:30",1071708,3.468,76.06,3.407,0.26,21.25,109.9652,24.81,25.84,27.79,0,111.2,13.12,25.64,38.1
"2009-07-18 00:30:00",1071709,4.306,84.2,5.347,0.374,21.22,109.9561,24.78,25.84,27.89,0,111.2,13.12,25.62,46.2
"2009-07-18 00:30:30",1071710,4.384,89.7,5.557,0.34,21.18,109.9477,24.76,25.83,27.98,0,111.2,13.12,25.60,51.7
"2009-07-18 00:31:00",1071711,5.006,89.9,2.172,0.209,21.23,109.9469,24.76,25.83,28.06,0,111.2,13.12,25.60,51.9
"2009-07-18 00:31:30",1071712,5.189,88.3,1.762,0.215,21.14,109.9421,24.75,25.81,28.01,0,111.2,13.12,25.58,50.3
"2009-07-18 00:32:00",1071713,5.349,83.8,1.777,0.224,21.16,109.9388,24.74,25.81,27.97,0,111.2,13.12,25.58,45.8
"2009-07-18 00:32:30",1071714,5.272,82.6,1.856,0.266,21.21,109.9419,24.75,25.79,27.97,0,111.2,13.12,25.58,44.6
"2009-07-18 00:33:00",1071715,4.829,86.1,2.92,0.307,21.19,109.9419,24.75,25.78,27.97,0,111.2,13.12,25.58,48.1
"2009-07-18 00:33:30",1071716,4.849,88.9,2.042,0.269,21.18,109.9379,24.73,25.79,28.05,0,111.2,13.12,25.57,50.9
"2009-07-18 00:34:00",1071717,4.962,93,3.004,0.293,21.2,109.9294,24.71,25.77,27.97,0,111.2,13.12,25.55,55.0
"2009-07-18 00:34:30",1071718,5.125,89.7,4.004,0.251,21.26,109.9228,24.7,25.75,27.96,0,111.2,13.12,25.53,51.7
"2009-07-18 00:35:00",1071719,5.219,81.3,4.582,0.487,21.17,109.9175,24.68,25.75,27.96,0,111.2,13.12,25.52,43.3
"2009-07-18 00:35:30",1071720,4.782,78.68,8.44,0.458,21.1,109.9137,24.67,25.74,27.98,0,111.2,13.12,25.51,40.7
"2009-07-18 00:36:00",1071721,4.65,76.19,3.698,0.213,21.08,109.9174,24.68,25.74,27.99,0,111.2,13.12,25.52,38.2
"2009-07-18 00:36:30",1071722,4.696,74.92,2.002,0.215,21.2,109.9199,24.69,25.72,28,0,111.2,13.12,25.53,36.9
"2009-07-18 00:37:00",1071723,4.438,75.44,3.13,0.154,21.25,109.9199,24.69,25.72,28.03,0,111.2,13.12,25.53,37.4
"2009-07-18 00:37:30",1071724,4.3,76.71,3.274,0.2,21.22,109.923,24.7,25.7,28.01,0,111.2,13.12,25.53,38.7
"2009-07-18 00:38:00",1071725,4.268,75.58,3.594,0.224,21.1,109.9242,24.7,25.7,27.97,0,111.2,13.12,25.54,37.6
"2009-07-18 00:38:30",1071726,4.669,73.91,1.948,0.255,21.11,109.9228,24.7,25.69,27.93,0,111.2,13.12,25.53,35.9
"2009-07-18 00:39:00",1071727,4.969,73.31,2.038,0.279,21.31,109.9162,24.68,25.7,28.02,0,111.2,13.12,25.52,35.3
"2009-07-18 00:39:30",1071728,5.347,76.44,1.831,0.206,21.44,109.9143,24.67,25.69,28.14,0,111.2,13.11,25.51,38.4
"2009-07-18 00:40:00",1071729,4.84,72.55,3.478,0.319,21.39,109.9078,24.66,25.7,28.06,0,111.2,13.12,25.50,34.6
"2009-07-18 00:40:30",1071730,4.173,73.43,2.388,0.311,21.34,109.9055,24.65,25.68,28.12,0,111.2,13.11,25.49,35.4
"2009-07-18 00:41:00",1071731,4.417,78.64,2.645,0.358,21.37,109.9045,24.65,25.67,28.03,0,111.2,13.12,25.49,40.6
"2009-07-18 00:41:30",1071732,5.115,77.65,2.781,0.201,21.26,109.9051,24.65,25.67,27.95,0,111.2,13.12,25.49,39.7
"2009-07-18 00:42:00",1071733,4.582,74.58,4.23,0.29,21.26,109.9045,24.65,25.68,28.02,0,111.2,13.12,25.49,36.6
"2009-07-18 00:42:30",1071734,4.596,76.39,3.784,0.212,21.28,109.9054,24.65,25.68,28.05,0,111.2,13.12,25.49,38.4
"2009-07-18 00:43:00",1071735,5.497,73,2.491,0.334,21.38,109.9048,24.65,25.67,28.07,0,111.2,13.12,25.49,35.0
"2009-07-18 00:43:30",1071736,5.448,75.42,2.612,0.307,21.21,109.9051,24.65,25.67,27.9,0,111.2,13.12,25.49,37.4
"2009-07-18 00:44:00",1071737,5.099,77.12,3.307,0.204,21.11,109.9048,24.65,25.67,27.8,0,111.2,13.12,25.49,39.1
"2009-07-18 00:44:30",1071738,5.198,83,2.163,0.286,21.04,109.9054,24.65,25.67,27.74,0,111.2,13.12,25.49,45.0
"2009-07-18 00:45:00",1071739,6.396,79.85,6.088,1.077,21.09,109.9049,24.65,25.67,27.78,0,111.2,13.12,25.49,41.8
"2009-07-18 00:45:30",1071740,6.541,81.3,7.089,0.47,21.13,109.9057,24.65,25.67,27.79,0,111.2,13.12,25.49,43.3
"2009-07-18 00:46:00",1071741,5.774,83.2,2.977,0.349,21.13,109.9054,24.65,25.67,27.76,0,111.2,13.12,25.49,45.2
"2009-07-18 00:46:30",1071742,5.195,79.4,3.783,0.443,21.19,109.9049,24.65,25.67,27.74,0,111.2,13.12,25.49,41.4
"2009-07-18 00:47:00",1071743,5.731,73.12,3.248,0.223,21.24,109.9038,24.65,25.66,27.73,0,111.2,13.12,25.49,35.1
"2009-07-18 00:47:30",1071744,6.121,71.56,2.394,0.356,21.37,109.9032,24.65,25.68,27.81,0,111.2,13.12,25.48,33.6
"2009-07-18 00:48:00",1071745,5.733,74.74,3.15,0.167,21.37,109.9023,24.64,25.66,27.76,0,111.2,13.12,25.48,36.7
"2009-07-18 00:48:30",1071746,5.785,77.76,1.627,0.199,21.37,109.8995,24.64,25.67,27.6,0,111.2,13.12,25.47,39.8
"2009-07-18 00:49:00",1071747,5.606,76.67,3.682,0.204,21.29,109.9016,24.64,25.66,27.62,0,111.2,13.12,25.48,38.7
"2009-07-18 00:49:30",1071748,5.238,70.05,1.249,0.156,21.29,109.9016,24.64,25.64,27.66,0,111.2,13.12,25.48,32.1
"2009-07-18 00:50:00",1071749,5.217,73.89,2.216,0.203,21.29,109.9014,24.64,25.65,27.68,0,111.1,13.12,25.48,35.9
"2009-07-18 00:50:30",1071750,5.385,74.17,1.381,0.107,21.32,109.8965,24.63,25.63,27.71,0,111.1,13.13,25.47,36.2
"2009-07-18 00:51:00",1071751,5.057,74.35,1.364,0.136,21.37,109.8871,24.6,25.63,27.73,0,111.1,13.13,25.44,36.3
"2009-07-18 00:51:30",1071752,5.198,71.98,1.552,0.158,21.39,109.8801,24.59,25.63,27.84,0,111.1,13.13,25.42,34.0
"2009-07-18 00:52:00",1071753,5.128,72.78,2.456,0.206,21.38,109.8748,24.57,25.63,27.92,0,111.1,13.13,25.41,34.8
"2009-07-18 00:52:30",1071754,5.627,70.06,3.025,0.183,21.33,109.872,24.57,25.61,27.89,0,111.2,13.13,25.40,32.1
"2009-07-18 00:53:00",1071755,5.291,72.52,2.346,0.282,21.38,109.872,24.57,25.6,27.87,0,111.2,13.13,25.40,34.5
"2009-07-18 00:53:30",1071756,4.971,72.39,3.808,0.288,21.28,109.8717,24.56,25.58,27.9,0,111.2,13.13,25.40,34.4
"2009-07-18 00:54:00",1071757,5.014,76.98,2.816,0.12,21.28,109.8655,24.55,25.59,27.88,0,111.2,13.13,25.39,39.0
"2009-07-18 00:54:30",1071758,4.624,81.6,3.803,0.219,21.29,109.8515,24.51,25.57,27.92,0,111.2,13.13,25.35,43.6
"2009-07-18 00:55:00",1071759,4.74,84.8,4.193,0.321,21.3,109.8464,24.5,25.57,28.01,0,111.2,13.12,25.34,46.8
"2009-07-18 00:55:30",1071760,4.522,78.26,2.782,0.364,21.32,109.8433,24.49,25.55,27.97,0,111.2,13.13,25.33,40.3
"2009-07-18 00:56:00",1071761,4.578,79.59,2.521,0.487,21.38,109.8388,24.48,25.56,28.03,0,111.2,13.13,25.32,41.6
"2009-07-18 00:56:30",1071762,5.442,80,1.294,0.259,21.39,109.8383,24.48,25.54,27.98,0,111.1,13.13,25.32,42.0
"2009-07-18 00:57:00",1071763,4.971,80.4,1.71,0.161,21.42,109.8383,24.48,25.53,28.01,0,111.1,13.13,25.32,42.4
"2009-07-18 00:57:30",1071764,4.815,81.7,3.067,0.225,21.41,109.8383,24.48,25.52,28.25,0,111.1,13.13,25.32,43.7
"2009-07-18 00:58:00",1071765,5.118,79.21,2.225,0.311,21.38,109.8377,24.48,25.51,28.1,0,111.1,13.13,25.31,41.2
"2009-07-18 00:58:30",1071766,4.811,76.94,2.733,0.155,21.43,109.8349,24.47,25.51,28.24,0,111.1,13.13,25.31,38.9
"2009-07-18 00:59:00",1071767,4.919,79.06,1.261,0.084,21.38,109.8293,24.46,25.5,28.05,0,111.1,13.13,25.29,41.1
"2009-07-18 00:59:30",1071768,5.151,82.5,2.075,0.145,21.44,109.8175,24.43,25.49,27.99,0,111.1,13.13,25.26,44.5
"2009-07-18 01:00:00",1071769,5.275,86,1.066,0.153,21.41,109.8079,24.4,25.49,27.88,0,111.1,13.13,25.24,48.0
"2009-07-18 01:00:30",1071770,5.07,88.7,1.526,0.124,21.47,109.8046,24.39,25.47,27.89,0,111.1,13.13,25.23,50.7
"2009-07-18 01:01:00",1071771,4.879,88.8,2.641,0.333,21.45,109.8049,24.39,25.47,27.92,0,111.1,13.13,25.23,50.8
"2009-07-18 01:01:30",1071772,5.561,83.4,3.342,0.245,21.46,109.8035,24.39,25.47,27.82,0,111.1,13.13,25.23,45.4
"2009-07-18 01:02:00",1071773,5.702,84.2,4.374,0.139,21.5,109.7848,24.34,25.45,27.7,0,111.1,13.13,25.18,46.2
"2009-07-18 01:02:30",1071774,5.677,88.4,1.21,0.095,21.49,109.7799,24.33,25.44,27.53,0,111.1,13.14,25.17,50.4
"2009-07-18 01:03:00",1071775,5.735,86,1.494,0.106,21.53,109.7771,24.32,25.43,27.19,0,111.1,13.14,25.16,48.0
"2009-07-18 01:03:30",1071776,5.57,85.7,1.287,0.109,21.51,109.7805,24.33,25.4,27.22,0,111.1,13.14,25.17,47.7
"2009-07-18 01:04:00",1071777,5.835,84.3,1.21,0.166,21.48,109.7722,24.31,25.38,27.26,0,111.1,13.14,25.15,46.3
"2009-07-18 01:04:30",1071778,5.499,82.3,1.973,0.143,21.49,109.7626,24.28,25.37,27.29,0,111.1,13.14,25.12,44.3
"2009-07-18 01:05:00",1071779,5.332,82.8,1.999,0.174,21.49,109.7553,24.27,25.35,27.16,0,111.1,13.14,25.10,44.8
"2009-07-18 01:05:30",1071780,5.304,80.1,1.244,0.168,21.42,109.7576,24.27,25.33,27.21,0,111.1,13.14,25.11,42.1
"2009-07-18 01:06:00",1071781,5.64,81.8,1.202,0.086,21.37,109.7557,24.27,25.32,27.12,0,111.1,13.14,25.10,43.8
"2009-07-18 01:06:30",1071782,5.542,81.9,1.183,0.074,21.32,109.7439,24.24,25.3,27.02,0,111.1,13.14,25.07,43.9
"2009-07-18 01:07:00",1071783,5.493,81.2,0.964,0.073,21.29,109.7388,24.22,25.28,27.14,0,111.1,13.14,25.06,43.2
"2009-07-18 01:07:30",1071784,5.261,80,1.597,0.074,21.25,109.7329,24.21,25.27,27.05,0,111.1,13.14,25.04,42.0
"2009-07-18 01:08:00",1071785,5.309,77.91,0.642,0.065,21.19,109.7312,24.2,25.26,27.19,0,111.1,13.14,25.04,39.9
"2009-07-18 01:08:30",1071786,5.474,79.39,1.294,0.129,21.13,109.7312,24.2,25.24,27.12,0,111.1,13.14,25.04,41.4
"2009-07-18 01:09:00",1071787,5.33,79.49,1.098,0.108,21.1,109.7312,24.2,25.24,27.4,0,111.1,13.14,25.04,41.5
"2009-07-18 01:09:30",1071788,5.186,79.94,0.872,0.11,21.06,109.7312,24.2,25.22,27.29,0,111.1,13.14,25.04,41.9
"2009-07-18 01:10:00",1071789,5.205,80.4,0.697,0.05,21.05,109.7312,24.2,25.22,27.36,0,111.1,13.14,25.04,42.4
"2009-07-18 01:10:30",1071790,5.288,81.1,1.61,0.164,21.04,109.7312,24.2,25.22,27.29,0,111.1,13.14,25.04,43.1
"2009-07-18 01:11:00",1071791,5.344,83.1,1.083,0.136,21.01,109.7312,24.2,25.23,27.18,0,111.1,13.14,25.04,45.1
"2009-07-18 01:11:30",1071792,5.406,83.4,0.979,0.146,20.98,109.7325,24.21,25.23,27.31,0,111.1,13.14,25.04,45.4
"2009-07-18 01:12:00",1071793,5.667,82.2,1.329,0.145,20.97,109.7315,24.2,25.22,27.53,0,111.1,13.14,25.04,44.2
"2009-07-18 01:12:30",1071794,5.872,78.96,2.517,0.169,20.94,109.7326,24.21,25.23,27.68,0,111.1,13.14,25.04,41.0
"2009-07-18 01:13:00",1071795,5.555,80.8,3.296,0.176,20.94,109.7366,24.22,25.24,27.85,0,111.1,13.14,25.05,42.8
"2009-07-18 01:13:30",1071796,5.79,83,1.777,0.135,20.96,109.7403,24.23,25.24,27.7,0,111.1,13.13,25.06,45.0
"2009-07-18 01:14:00",1071797,5.752,82.7,1.715,0.118,21.01,109.7403,24.23,25.25,27.54,0,111.1,13.13,25.06,44.7
"2009-07-18 01:14:30",1071798,6.268,81.8,2.375,0.369,20.94,109.7406,24.23,25.24,27.31,0,111.1,13.13,25.06,43.8
"2009-07-18 01:15:00",1071799,7.334,81.4,2.022,0.276,20.91,109.748,24.25,25.26,27.2,0,111.1,13.13,25.08,43.4
"2009-07-18 01:15:30",1071800,8.04,88.2,3.618,0.312,20.68,109.7505,24.25,25.25,27.68,0,111.1,13.13,25.09,50.2
"2009-07-18 01:16:00",1071801,7.696,100.1,3.694,0.251,20.79,109.7468,24.24,25.27,28.14,0,111.1,13.13,25.08,62.1
"2009-07-18 01:16:30",1071802,7.85,108,4.876,0.215,20.84,109.7425,24.23,25.25,28.32,0,111.1,13.13,25.07,70.0
"2009-07-18 01:17:00",1071803,7.206,115.3,1.995,0.332,20.88,109.7351,24.21,25.25,28.22,0,111.1,13.14,25.05,77.3
"2009-07-18 01:17:30",1071804,7.502,116.5,2.462,0.376,20.87,109.7337,24.21,25.24,28.22,0,111.1,13.14,25.05,78.5
"2009-07-18 01:18:00",1071805,7.285,120.9,3.236,0.391,20.9,109.7371,24.22,25.24,28.14,0,111.1,13.14,25.06,82.9
"2009-07-18 01:18:30",1071806,7.128,118.7,2.037,0.145,20.79,109.7195,24.17,25.23,28.21,0,111.1,13.14,25.01,80.7
"2009-07-18 01:19:00",1071807,7.208,115.8,0.85,0.111,20.89,109.7078,24.14,25.21,28.07,0,111.1,13.14,24.98,77.8
"2009-07-18 01:19:30",1071808,7.181,113.4,1.153,0.08,20.94,109.7046,24.14,25.19,28.03,0,111.1,13.14,24.97,75.4
"2009-07-18 01:20:00",1071809,7.312,112.9,0.879,0.124,20.99,109.6915,24.1,25.18,28.03,0,111.1,13.14,24.94,74.9
"2009-07-18 01:20:30",1071810,7.278,112.2,1.056,0.055,21.03,109.6758,24.06,25.15,28.01,0,111.1,13.14,24.90,74.2
"2009-07-18 01:21:00",1071811,7.239,112.3,0.961,0.08,21.03,109.6711,24.05,25.13,28.04,0,111.1,13.14,24.89,74.3
"2009-07-18 01:21:30",1071812,7.092,112.7,0.997,0.104,20.99,109.6534,24,25.13,28.02,0,111.1,13.14,24.84,74.7
"2009-07-18 01:22:00",1071813,6.945,112.8,0.773,0.115,20.92,109.6419,23.97,25.08,28.06,0,111.1,13.14,24.81,74.8
"2009-07-18 01:22:30",1071814,7.132,113.6,1.154,0.183,20.86,109.6391,23.97,25.05,28.17,0,111.1,13.14,24.80,75.6
"2009-07-18 01:23:00",1071815,7.162,112.2,0.653,0.063,20.81,109.6225,23.92,25.04,28.1,0,111.1,13.14,24.76,74.2
"2009-07-18 01:23:30",1071816,7.123,110.9,1.293,0.149,20.83,109.6085,23.89,25.01,28.16,0,111.1,13.14,24.72,72.9
"2009-07-18 01:24:00",1071817,7.05,110.6,1.424,0.196,20.81,109.6054,23.88,24.98,28.3,0,111.1,13.14,24.72,72.6
"2009-07-18 01:24:30",1071818,7.054,111.6,0.589,0.094,20.81,109.5984,23.86,24.96,28.29,0,111.1,13.14,24.70,73.6
"2009-07-18 01:25:00",1071819,7.084,111,0.982,0.078,20.8,109.5798,23.82,24.94,28.32,0,111.1,13.14,24.65,73.0
"2009-07-18 01:25:30",1071820,7.224,111.7,0.515,0.115,20.78,109.572,23.79,24.9,28.38,0,111.1,13.14,24.63,73.7
"2009-07-18 01:26:00",1071821,7.239,110.6,1.021,0.082,20.81,109.572,23.79,24.9,28.36,0,111.1,13.14,24.63,72.6
"2009-07-18 01:26:30",1071822,7.262,112,1.192,0.094,20.81,109.568,23.78,24.88,28.3,0,111.1,13.14,24.62,74.0
"2009-07-18 01:27:00",1071823,6.905,112.5,0.785,0.129,20.77,109.5503,23.74,24.86,28.27,0,111.1,13.14,24.57,74.5
"2009-07-18 01:27:30",1071824,6.97,112.5,0.836,0.177,20.78,109.5447,23.72,24.84,28.18,0,111.1,13.14,24.56,74.5
"2009-07-18 01:28:00",1071825,7.103,113.1,0.82,0.196,20.74,109.5385,23.71,24.82,28.25,0,111.1,13.14,24.54,75.1
"2009-07-18 01:28:30",1071826,7.586,113.7,0.99,0.191,20.76,109.5382,23.71,24.82,28.08,0,111.1,13.14,24.54,75.7
"2009-07-18 01:29:00",1071827,7.676,112.4,0.315,0.073,20.7,109.5349,23.7,24.79,28.02,0,111.1,13.14,24.53,74.4
"2009-07-18 01:29:30",1071828,7.85,113.1,0.741,0.126,20.77,109.5295,23.69,24.76,27.9,0,111.1,13.14,24.52,75.1
"2009-07-18 01:30:00",1071829,7.78,112.9,0.765,0.157,20.77,109.5169,23.65,24.76,27.86,0,111.1,13.14,24.49,74.9
"2009-07-18 01:30:30",1071830,7.405,112.5,0.591,0.178,20.79,109.5093,23.63,24.73,27.84,0,111.1,13.14,24.47,74.5
"2009-07-18 01:31:00",1071831,7.378,112.8,0.728,0.078,20.8,109.5045,23.62,24.72,27.84,0,111.1,13.14,24.46,74.8
"2009-07-18 01:31:30",1071832,7.558,112.1,0.404,0.09,20.76,109.5045,23.62,24.72,27.71,0,111.1,13.14,24.46,74.1
"2009-07-18 01:32:00",1071833,7.542,111.3,0.65,0.096,20.74,109.5045,23.62,24.69,27.34,0,111.1,13.14,24.46,73.3
"2009-07-18 01:32:30",1071834,7.575,111.9,0.512,0.081,20.75,109.5029,23.62,24.68,27.31,0,111.1,13.14,24.45,73.9
"2009-07-18 01:33:00",1071835,7.734,111.1,0.888,0.112,20.75,109.4975,23.6,24.66,27.11,0,111.1,13.14,24.44,73.1
"2009-07-18 01:33:30",1071836,7.779,111.2,1.013,0.164,20.77,109.4905,23.59,24.66,26.94,0,111.1,13.14,24.42,73.2
"2009-07-18 01:34:00",1071837,7.735,112.4,0.591,0.105,20.78,109.4801,23.56,24.64,26.94,0,111.1,13.14,24.39,74.4
"2009-07-18 01:34:30",1071838,7.816,111,1.197,0.142,20.73,109.4793,23.56,24.63,26.85,0,111.1,13.14,24.39,73.0
"2009-07-18 01:35:00",1071839,7.913,112.9,0.514,0.138,20.67,109.4781,23.55,24.61,26.9,0,111.1,13.14,24.39,74.9
"2009-07-18 01:35:30",1071840,8.09,113.5,0.632,0.067,20.64,109.4742,23.54,24.61,26.92,0,111.1,13.15,24.38,75.5
"2009-07-18 01:36:00",1071841,8.12,115.1,1.469,0.075,20.64,109.4708,23.54,24.61,27,0,111.1,13.15,24.37,77.1
"2009-07-18 01:36:30",1071842,8.11,112.7,1.06,0.101,20.66,109.4708,23.54,24.6,27.01,0,111.1,13.15,24.37,74.7
"2009-07-18 01:37:00",1071843,8.25,113.8,1.348,0.249,20.66,109.4708,23.54,24.59,26.94,0,111.1,13.15,24.37,75.8
"2009-07-18 01:37:30",1071844,9.09,116.2,1.577,0.319,20.5,109.4708,23.54,24.58,27.03,0,111.1,13.15,24.37,78.2
"2009-07-18 01:38:00",1071845,9.22,116.7,1.472,0.143,20.34,109.4652,23.52,24.57,28.24,0,111.1,13.15,24.35,78.7
"2009-07-18 01:38:30",1071846,9.46,115.9,1.223,0.269,20.32,109.4433,23.46,24.55,29.14,0,111.1,13.15,24.30,77.9
"2009-07-18 01:39:00",1071847,9.17,115,2.04,0.32,20.33,109.4371,23.45,24.55,29.41,0,111.1,13.15,24.28,77.0
"2009-07-18 01:39:30",1071848,9.47,117.7,1.323,0.233,20.38,109.4194,23.4,24.52,29.19,0,111.1,13.15,24.24,79.7
"2009-07-18 01:40:00",1071849,9.25,120.6,1.656,0.416,20.37,109.4034,23.36,24.5,29.33,0,111.1,13.15,24.20,82.6
"2009-07-18 01:40:30",1071850,8.53,121.5,3.239,0.338,20.37,109.3874,23.32,24.47,29.47,0,111.1,13.15,24.15,83.5
"2009-07-18 01:41:00",1071851,8.73,121.1,1.949,0.321,20.48,109.37,23.28,24.44,29.23,0,111.1,13.15,24.11,83.1
"2009-07-18 01:41:30",1071852,8.79,121.2,0.813,0.158,20.45,109.3619,23.26,24.39,28.84,0,111.1,13.15,24.09,83.2
"2009-07-18 01:42:00",1071853,8.73,119.9,0.968,0.139,20.39,109.3405,23.2,24.36,29.59,0,111.1,13.15,24.03,81.9
"2009-07-18 01:42:30",1071854,8.83,118.9,1.231,0.128,20.57,109.3357,23.19,24.33,28.77,0,111.1,13.15,24.02,80.9
"2009-07-18 01:43:00",1071855,8.51,120.5,1.01,0.124,20.56,109.3237,23.16,24.3,28.45,0,111,13.15,23.99,82.5
"2009-07-18 01:43:30",1071856,8.67,119.7,0.637,0.097,20.6,109.3057,23.11,24.27,28.36,0,111.1,13.15,23.94,81.7
"2009-07-18 01:44:00",1071857,8.52,119.3,0.779,0.096,20.7,109.3023,23.1,24.24,27.8,0,111,13.15,23.93,81.3
"2009-07-18 01:44:30",1071858,8.38,117.9,0.728,0.098,20.73,109.3025,23.1,24.22,27.74,0,111,13.15,23.94,79.9
"2009-07-18 01:45:00",1071859,8.19,119.4,1.206,0.073,20.71,109.2941,23.08,24.19,27.76,0,111,13.15,23.91,81.4
"2009-07-18 01:45:30",1071860,7.994,119.3,0.81,0.046,20.7,109.2847,23.06,24.18,28.05,0,111,13.15,23.89,81.3
"2009-07-18 01:46:00",1071861,7.874,119.8,0.503,0.065,20.79,109.2856,23.06,24.16,27.52,0,111,13.15,23.89,81.8
"2009-07-18 01:46:30",1071862,7.813,120.8,0.679,0.059,20.78,109.2799,23.04,24.14,27.47,0,111,13.15,23.88,82.8
"2009-07-18 01:47:00",1071863,7.733,120.5,0.527,0.059,20.78,109.2837,23.05,24.13,27.52,0,111,13.15,23.89,82.5
"2009-07-18 01:47:30",1071864,7.634,122,0.648,0.063,20.71,109.2843,23.06,24.1,27.94,0,111,13.14,23.89,84.0
"2009-07-18 01:48:00",1071865,7.369,122.5,0.525,0.08,20.75,109.288,23.07,24.1,27.78,0,111,13.14,23.90,84.5